Regional Weather Roundup
Issued by NWS Cleveland, OH

Home | Current Version | Previous Version | Graphics & Text | Print | Product List | Glossary On
Versions: 1 2 3 4 5 6 7 8 9 10 11 12 13 14 15 16 17 18 19 20 21 22 23 24 25 26 27 28 29 30 31 32 33 34 35 36 37 38 39 40 41 42 43 44 45 46 47 48 49 50
000
ASUS41 KCLE 170112
RWRCLE
OHIO REGIONAL WEATHER ROUNDUP
NATIONAL WEATHER SERVICE WILMINGTON, OH
800 PM EST SAT DEC 16 2017

NOTE: "FAIR" INDICATES FEW OR NO CLOUDS BELOW 12,000 FEET WITH NO
SIGNIFICANT WEATHER AND/OR OBSTRUCTIONS TO VISIBILITY.

OHZ001>008-015>018-024>027-034-035-043-044-170200-
   NORTHWEST OHIO

CITY           SKY/WX    TMP DP  RH WIND       PRES   REMARKS
DEFIANCE       FAIR      30  24  78 E5        30.08R WCI  25
FINDLAY        FAIR      34  26  72 E5        30.07R WCI  30
TOLEDO EXPRESS FAIR      29  27  92 E7        30.11R WCI  22
TOLEDO EXEC    FAIR      30  26  85 NE6       30.12R WCI  24
LIMA           FAIR      34  28  79 SE6       30.06R WCI  29
$$

OHZ009>014-019>023-028>033-038-089-170200-
   NORTHEAST OHIO

CITY           SKY/WX    TMP DP  RH WIND       PRES   REMARKS
CLE-HOPKINS    FAIR      32  30  92 NE3       30.13R
CLE-LAKEFRONT  FAIR      33  30  88 NE7       30.11R WCI  27
CUY CO. ARPT   PTCLDY    32  32 100 E6        30.12R WCI  26
LORAIN-ELYRIA  FAIR      28  23  81 E5        30.10R WCI  23
ASHTABULA      CLOUDY    31  29  92 E3        30.13R
AKRON-CANTON   FAIR      34  25  69 S5        30.09R WCI  30
WOOSTER        FAIR      23  21  92 CALM      30.10R
MANSFIELD      FAIR      34  26  72 S6        30.08R WCI  29
YOUNGSTOWN     FAIR      31  25  78 E3        30.09R
$$

OHZ042-051>053-060>062-070>072-077>081-170200-
  SOUTHWEST OHIO

CITY           SKY/WX    TMP DP  RH WIND       PRES   REMARKS
CINC-COVINGTON FAIR      43  29  57 S10       30.10R
CINC-LUNKEN    FAIR      41  28  60 S7        30.12R
HAMILTON       FAIR      41  28  60 CALM      30.11R
DAYTON         FAIR      40  27  59 SW8       30.09R
WRIGHT-PAT AFB FAIR      37  24  61 S7        30.08R
DAYTON GENERAL FAIR      39  26  59 S8        30.08R
WILMINGTON     FAIR      38  28  67 SW10      30.09R
$$

OHZ036-037-039>041-045>050-054>059-063>069-073>076-082>088-170200-
  CENTRAL AND SOUTHEAST OHIO

CITY           SKY/WX    TMP DP  RH WIND       PRES   REMARKS
COLUMBUS       FAIR      40  27  59 CALM      30.10R
OSU AIRPORT    FAIR      40  28  62 CALM      30.09R
BOLTON FIELD   NOT AVBL
RICKENBACK AFB FAIR      36  27  67 CALM      30.10R
NEWARK         FAIR      30  25  81 CALM      30.10R
MARION         FAIR      36  26  67 S7        30.09R
LANCASTER      FAIR      36  26  67 CALM      30.10R
ZANESVILLE     FAIR      36  24  62 CALM      30.11R
NEW PHILLY     FAIR      28  24  85 CALM      30.12R
$$




USA.gov is the U.S. government's official web portal to all federal, state and local government web resources and services.